Voltar ao catálogo

STARLINK-36188

AtivoComunicaçõesVLEO
NORAD 67122·PAYLOAD·🇺🇸 United States

Lançado Dec 15, 2025 de Cape Canaveral Space Force Station

Loading…

Próximas Passagens (próximas 24 horas)

TLE

AtualizadoSource: CelesTrak SupGP

Época: Sep 14, 2026, 22:27 UTC

1 67122C 25299W   26257.93590278 -.00058852  00000+0 -21312-2 0  2577
2 67122  43.0021 180.4596 0001375 263.8325 193.4701 15.27614010    11

Acompanhe STARLINK-36188 em tempo real com AllMySat

Download on the App Store